[Date Prev][Date Next][Thread Prev][Thread Next] - [Date Index][Thread Index][Author Index]

2 Line ISS Keps 12-21



ISS
1 25544U 98067A   05355.10526690  .00011341  00000-0  84756-4 0  9856
2 25544 051.6469 022.8997 0010626 064.0416 346.8731 15.73214486405109
----
Via the sarex mailing list at AMSAT.ORG courtesy of AMSAT-NA.
To unsubscribe, send "unsubscribe sarex" to Majordomo@amsat.org



AMSAT Top AMSAT Home